Weather History for Indiana, PA

Change the Weather History Date:

Wednesday, December 5, 2012

  Actual Average Record
Temperature  
Mean Temperature 37 °F -  
Max Temperature 44 °F 42 °F 75 °F (2001)
Min Temperature 30 °F 26 °F -5 °F (1957)
Degree Days  
Heating Degree Days 28    
Moisture  
Dew Point 33 °F    
Average Humidity 87    
Maximum Humidity 100    
Minimum Humidity 70    
Precipitation  
Precipitation 0.03 in - - ()
Sea Level Pressure  
Sea Level Pressure 30.23 in    
Wind  
Wind Speed 6 mph (WNW)    
Max Wind Speed 15 mph    
Max Gust Speed 25 mph    
Visibility 9 miles    
Events      
Averages and records for this station are not official NWS values.
T = Trace of Precipitation, MM = Missing Value Source: NWS Daily Summary

Daily Weather History Graph

Daily Weather History Graph

Search for Another Location

Airport:

Trip Planner

Search our weather history database for the weather conditions in past years. The results will help you decide how hot, cold, wet, or windy it might be!

Date:

Astronomy

Dec. 05, 2012 Rise Set
Actual Time 7:25 AM EST 4:49 PM EST
Civil Twilight 6:54 AM EST 5:19 PM EST
Nautical Twilight 6:20 AM EST 5:53 PM EST
Astronomical Twilight 5:47 AM EST 6:26 PM EST
Moon 11:38 PM EST (12/5) 11:46 AM EST (12/5)
Length of Visible Light 10h 25m
Length of Day
9h 23m
Waning Gibbous, 60% of the Moon is Illuminated
Dec 5
Waning Gibbous
Dec 6
Last Quarter
Dec 13
New
Dec 20
First Quarter
Dec 28
Full

Hourly Weather History & Observations

Time (EST) Temp. Windchill Dew Point Humidity Pressure Visibility Wind Dir Wind Speed Gust Speed Precip Events Conditions
12:15 AM 44.6 °F 43.1 °F 44.6 °F 100% 30.09 in 10.0 mi WNW 3.5 mph - 0.02 in   Unknown
12:35 AM 44.6 °F 42.2 °F 44.6 °F 100% 30.10 in 10.0 mi West 4.6 mph - 0.03 in   Unknown
12:55 AM 44.6 °F 41.4 °F 44.6 °F 100% 30.10 in 10.0 mi WNW 5.8 mph - 0.03 in   Unknown
1:15 AM 44.6 °F 40.2 °F 44.6 °F 100% 30.10 in 10.0 mi West 8.1 mph - N/A   Unknown
1:35 AM 44.6 °F 39.2 °F 44.6 °F 100% 30.11 in 10.0 mi West 10.4 mph - N/A   Unknown
1:55 AM 44.6 °F 41.4 °F 44.6 °F 100% 30.12 in 10.0 mi WNW 5.8 mph - N/A   Unknown
2:15 AM 42.8 °F 39.3 °F 42.8 °F 100% 30.12 in 10.0 mi West 5.8 mph - N/A   Unknown
2:55 AM 41.0 °F 38.0 °F 41.0 °F 100% 30.13 in 10.0 mi West 4.6 mph - N/A   Unknown
3:15 AM 41.0 °F 37.1 °F 41.0 °F 100% 30.13 in 10.0 mi West 5.8 mph - N/A   Unknown
3:35 AM 39.2 °F 35.0 °F 39.2 °F 100% 30.13 in 10.0 mi West 5.8 mph - N/A   Unknown
3:55 AM 39.2 °F 37.0 °F 39.2 °F 100% 30.13 in 10.0 mi West 3.5 mph - N/A   Unknown
4:15 AM 39.2 °F 35.9 °F 39.2 °F 100% 30.13 in 10.0 mi West 4.6 mph - N/A   Unknown
4:35 AM 37.4 °F 32.8 °F 37.4 °F 100% 30.13 in 10.0 mi WSW 5.8 mph - N/A   Unknown
4:55 AM 39.2 °F 34.2 °F 39.2 °F 100% 30.14 in 10.0 mi West 6.9 mph - N/A   Unknown
5:15 AM 37.4 °F 33.8 °F 37.4 °F 100% 30.14 in 7.0 mi West 4.6 mph - N/A   Unknown
5:35 AM 37.4 °F 31.4 °F 37.4 °F 100% 30.15 in 7.0 mi WSW 8.1 mph - N/A   Unknown
5:55 AM 37.4 °F 32.8 °F 37.4 °F 100% 30.15 in 5.0 mi West 5.8 mph - N/A   Unknown
6:15 AM 37.4 °F 33.8 °F 37.4 °F 100% 30.16 in 5.0 mi WSW 4.6 mph - N/A   Unknown
6:35 AM 37.4 °F 33.8 °F 37.4 °F 100% 30.17 in 4.0 mi West 4.6 mph - N/A   Unknown
6:55 AM 37.4 °F 33.8 °F 37.4 °F 100% 30.18 in 5.0 mi West 4.6 mph - N/A   Unknown
7:15 AM 37.4 °F 33.8 °F 37.4 °F 100% 30.18 in 7.0 mi West 4.6 mph - N/A   Unknown
7:35 AM 37.4 °F - 37.4 °F 100% 30.17 in 7.0 mi Calm Calm - N/A   Unknown
7:55 AM 37.4 °F 33.8 °F 37.4 °F 100% 30.18 in 5.0 mi West 4.6 mph - N/A   Unknown
9:35 AM 37.4 °F 29.3 °F 37.4 °F 100% 30.21 in 10.0 mi NW 12.7 mph 17.3 mph N/A   Unknown
9:55 AM 39.2 °F 33.0 °F 37.4 °F 93% 30.22 in 10.0 mi NW 9.2 mph 16.1 mph N/A   Unknown
10:15 AM 39.2 °F 32.0 °F 37.4 °F 93% 30.22 in 10.0 mi WNW 11.5 mph 19.6 mph N/A   Unknown
10:35 AM 39.2 °F 33.0 °F 37.4 °F 93% 30.22 in 10.0 mi WNW 9.2 mph 17.3 mph N/A   Unknown
10:55 AM 39.2 °F 33.0 °F 37.4 °F 93% 30.22 in 10.0 mi WNW 9.2 mph - N/A   Unknown
11:15 AM 39.2 °F 33.0 °F 37.4 °F 93% 30.22 in 10.0 mi WNW 9.2 mph 16.1 mph N/A   Unknown
11:35 AM 39.2 °F 33.0 °F 35.6 °F 87% 30.22 in 10.0 mi WNW 9.2 mph - N/A   Unknown
11:55 AM 39.2 °F 32.0 °F 33.8 °F 81% 30.22 in 10.0 mi NW 11.5 mph 23.0 mph N/A   Unknown
12:15 PM 39.2 °F 32.5 °F 33.8 °F 81% 30.22 in 10.0 mi NW 10.4 mph 17.3 mph N/A   Unknown
12:35 PM 39.2 °F 30.8 °F 33.8 °F 81% 30.22 in 10.0 mi NW 15.0 mph 21.9 mph N/A   Unknown
12:55 PM 39.2 °F 33.6 °F 33.8 °F 81% 30.22 in 10.0 mi WNW 8.1 mph 17.3 mph N/A   Unknown
1:15 PM 39.2 °F 31.6 °F 33.8 °F 81% 30.22 in 10.0 mi NW 12.7 mph 18.4 mph N/A   Unknown
1:35 PM 39.2 °F 32.5 °F 33.8 °F 81% 30.22 in 10.0 mi NW 10.4 mph 16.1 mph N/A   Unknown
1:55 PM 39.2 °F 31.6 °F 33.8 °F 81% 30.22 in 10.0 mi NW 12.7 mph 18.4 mph N/A   Unknown
2:15 PM 37.4 °F 29.3 °F 33.8 °F 87% 30.22 in 10.0 mi NW 12.7 mph 19.6 mph N/A   Unknown
2:35 PM 37.4 °F 28.9 °F 30.2 °F 75% 30.24 in 10.0 mi NNW 13.8 mph 25.3 mph N/A   Unknown
2:55 PM 35.6 °F 28.0 °F 28.4 °F 75% 30.25 in 10.0 mi NW 10.4 mph 21.9 mph N/A   Unknown
3:15 PM 35.6 °F 29.2 °F 26.6 °F 70% 30.26 in 10.0 mi NW 8.1 mph 16.1 mph N/A   Unknown
3:35 PM 35.6 °F 27.1 °F 26.6 °F 70% 30.27 in 10.0 mi NNW 12.7 mph - N/A   Unknown
3:55 PM 33.8 °F 24.8 °F 26.6 °F 75% 30.28 in 10.0 mi NW 12.7 mph 16.1 mph N/A   Unknown
4:15 PM 33.8 °F 26.4 °F 24.8 °F 70% 30.29 in 10.0 mi NW 9.2 mph 17.3 mph N/A   Unknown
4:35 PM 33.8 °F 27.0 °F 24.8 °F 70% 30.30 in 10.0 mi NNW 8.1 mph - N/A   Unknown
4:55 PM 33.8 °F 27.0 °F 24.8 °F 70% 30.30 in 10.0 mi NNW 8.1 mph 16.1 mph N/A   Unknown
5:15 PM 33.8 °F 27.0 °F 24.8 °F 70% 30.31 in 10.0 mi North 8.1 mph - N/A   Unknown
5:35 PM 33.8 °F 27.7 °F 24.8 °F 70% 30.32 in 10.0 mi NNW 6.9 mph - N/A   Unknown
5:55 PM 33.8 °F 28.6 °F 24.8 °F 70% 30.32 in 10.0 mi NW 5.8 mph - N/A   Unknown
6:15 PM 33.8 °F 29.6 °F 24.8 °F 70% 30.32 in 10.0 mi NW 4.6 mph - N/A   Unknown
6:35 PM 33.8 °F 29.6 °F 26.6 °F 75% 30.31 in 10.0 mi NNW 4.6 mph - N/A   Unknown
6:55 PM 32.0 °F 26.4 °F 24.8 °F 75% 30.31 in 10.0 mi NNW 5.8 mph - N/A   Unknown
7:15 PM 33.8 °F 28.6 °F 24.8 °F 70% 30.31 in 10.0 mi NNW 5.8 mph - N/A   Unknown
7:35 PM 32.0 °F 28.7 °F 26.6 °F 80% 30.31 in 10.0 mi NW 3.5 mph - N/A   Unknown
7:55 PM 32.0 °F - 26.6 °F 80% 30.32 in 10.0 mi Calm Calm - N/A   Unknown
8:15 PM 32.0 °F 27.5 °F 26.6 °F 80% 30.31 in 10.0 mi North 4.6 mph - N/A   Unknown
8:35 PM 32.0 °F 28.7 °F 26.6 °F 80% 30.31 in 10.0 mi NNE 3.5 mph - N/A   Unknown
8:55 PM 32.0 °F 28.7 °F 26.6 °F 80% 30.31 in 10.0 mi NNW 3.5 mph - N/A   Unknown
9:15 PM 32.0 °F 28.7 °F 24.8 °F 75% 30.32 in 10.0 mi North 3.5 mph - N/A   Unknown
9:35 PM 30.2 °F 24.3 °F 24.8 °F 80% 30.32 in 10.0 mi NNW 5.8 mph - N/A   Unknown
9:55 PM 30.2 °F 26.7 °F 24.8 °F 80% 30.32 in 10.0 mi North 3.5 mph - N/A   Unknown
10:15 PM 30.2 °F - 24.8 °F 80% 30.32 in 10.0 mi Calm Calm - N/A   Unknown
10:35 PM 30.2 °F - 24.8 °F 80% 30.32 in 10.0 mi Calm Calm - N/A   Unknown
10:55 PM 30.2 °F - 24.8 °F 80% 30.33 in 10.0 mi Calm Calm - N/A   Unknown
11:15 PM 30.2 °F - 24.8 °F 80% 30.32 in 10.0 mi Calm Calm - N/A   Unknown
11:35 PM 30.2 °F - 26.6 °F 86% 30.33 in 10.0 mi Calm Calm - N/A   Unknown
11:55 PM 30.2 °F - 26.6 °F 86% 30.33 in 10.0 mi Calm Calm - N/A   Unknown